User: anonymous   Login
Location: Poprad
(49.0500°N, 20.3000°E)
Time: 22:03:23
(UTC+02:00)
Language:

CUTE 1.7 + AOD 2 - Orbit

View from above orbital plane
View from above orbital plane
View from above satellite
View from above satellite

Ground track
Ground track

The orbit data is extracted from the following two-line orbital elements,

1 32785U 08021C   24112.84600261  .00013074  00000-0  11709-2 0  9998
2 32785  97.7498  78.6944 0012524 145.7276 214.4756 14.95884125867057
Epoch (UTC): 21 April 2024 20:18:14
Eccentricity: 0.0012524
inclination: 97.7498°
perigee height: 571 km
apogee height: 588 km
right ascension of ascending node: 78.6944°
argument of perigee: 145.7276°
revolutions per day: 14.95884125
mean anomaly at epoch: 214.4756°
orbit number at epoch: 86705

The dashed part of the orbit path shows where the satellite is in the earth's shadow,  

DLR